Weather in Jerusalem

Israel     31˚46′38″N   35˚12′18″E
temp.,
°C
wind,
m/s
gust,
m/s
humid.,
%
clouds,
%
prec.,
mm/h
press.,
hPa
HPBL,
m
29 november, sun
sun2923:00+13˚nw11760 0.2 101923
02:00+12˚nne11790 0.3 101923
05:00+11˚ese01830 0.0 101922
08:00+13˚ese00690 0.0 102092
11:00+16˚e11570 0.0 1020634
14:00+17˚ene11510 0.0 10181021
17:00+15˚nne22632 0.0 101831
20:00+14˚nne22661 0.0 101823
30 november, mon
mon3023:00+14˚ene35610 0.0 101868
02:00+12˚ne12650 0.0 101723
05:00+11˚ssw11670 0.0 101723
08:00+14˚se11540 0.0 101862
11:00+17˚se12450 0.0 1017671
14:00+18˚wsw12420 0.0 10141311
17:00+16˚nw23590 0.0 101451
20:00+14˚nw117233 0.0 101523
1 december, tue
tue123:00+13˚wnw1173100 0.0 101423
02:00+12˚wsw017458 0.0 101423
05:00+11˚sw11740 0.0 101323
08:00+14˚s01590 0.0 101464
11:00+16˚ese22480 0.0 1013839
14:00+17˚nne12440 0.0 10111163
17:00+15˚nnw23580 0.0 101254
20:00+14˚nw23690 0.0 101434
2 december, wed
wed223:00+13˚nw226626 0.0 101423
02:00+12˚wnw226713 0.0 101423
05:00+10˚nw11690 0.0 101523
08:00+14˚n11540 0.0 101759
11:00+16˚ne12460 0.0 1017938
14:00+17˚n23490 0.0 10151240
17:00+15˚nnw22610 0.0 101643
20:00+13˚nnw12700 0.0 101823
3 december, thu
thu323:00+12˚n12730 0.0 101923
02:00+11˚ne11800 0.0 101923
05:00+10˚ene12800 0.0 101922
08:00+13˚ene12660 0.0 1020121
11:00+16˚e22510 0.0 1019483
14:00+17˚ene11390 0.0 1017791
17:00+15˚n23480 0.0 101723
20:00+14˚ne23440 0.0 101723